| time (UTC) | temp F | wind direction | speed MPH | gust MPH | rain 1hr in | rain 24hr in | rain mn in | humidity % | barometer mb |
| 20260504040633 | 54 | 288 | 2.0 | 5.0 | 0.00 | 0.00 | 0.00 | 57 | 1011.9 |
| 20260504040111 | 55 | 291 | 2.0 | 5.0 | 0.00 | 0.00 | 0.00 | 57 | 1011.9 |
| 20260504040040 | 54 | 291 | 1.0 | 5.0 | 0.00 | 0.00 | 0.00 | 57 | 1012.4 |
| 20260504035612 | 55 | 273 | 2.0 | 5.0 | 0.00 | 0.00 | 0.00 | 56 | 1011.9 |
| 20260504035329 | 55 | 290 | 2.0 | 5.0 | 0.00 | 0.00 | 0.00 | 56 | 1012.0 |
| 20260504034546 | 55 | 288 | 2.0 | 7.0 | 0.00 | 0.00 | 0.00 | 55 | 1012.1 |
| 20260504034516 | 55 | 287 | 2.0 | 6.0 | 0.00 | 0.00 | 0.00 | 55 | 1012.6 |
| 20260504034035 | 55 | 290 | 2.0 | 7.0 | 0.00 | 0.00 | 0.00 | 55 | 1012.1 |
| 20260504033534 | 55 | 289 | 2.0 | 4.0 | 0.00 | 0.00 | 0.00 | 54 | 1012.1 |
| 20260504033037 | 56 | 290 | 1.0 | 4.0 | 0.00 | 0.00 | 0.00 | 54 | 1012.2 |
| 20260504033007 | 55 | 290 | 1.0 | 4.0 | 0.00 | 0.00 | 0.00 | 54 | 1012.8 |
| 20260504032511 | 56 | 290 | 1.0 | 4.0 | 0.00 | 0.00 | 0.00 | 54 | 1012.2 |
| 20260504032009 | 56 | 291 | 2.0 | 6.0 | 0.00 | 0.00 | 0.00 | 53 | 1012.1 |
| 20260504031534 | 56 | 291 | 2.0 | 6.0 | 0.00 | 0.00 | 0.00 | 53 | 1012.7 |
| 20260504031452 | 56 | 273 | 2.0 | 6.0 | 0.00 | 0.00 | 0.00 | 53 | 1012.2 |
| 20260504030950 | 56 | 273 | 2.0 | 6.0 | 0.00 | 0.00 | 0.00 | 53 | 1012.2 |
| 20260504030420 | 56 | 273 | 2.0 | 6.0 | 0.00 | 0.00 | 0.00 | 52 | 1012.3 |
| 20260504030336 | 57 | 273 | 2.0 | 7.0 | 0.00 | 0.00 | 0.00 | 52 | 1012.3 |
| 20260504030048 | 56 | 273 | 3.0 | 5.0 | 0.00 | 0.00 | 0.00 | 52 | 1012.8 |
| 20260504025338 | 57 | 273 | 3.0 | 7.0 | 0.00 | 0.00 | 0.00 | 52 | 1012.4 |
| 20260504024812 | 57 | 288 | 2.0 | 6.0 | 0.00 | 0.00 | 0.00 | 52 | 1012.4 |
| 20260504024551 | 56 | 287 | 1.0 | 5.0 | 0.00 | 0.00 | 0.00 | 52 | 1013.0 |
| 20260504024247 | 57 | 286 | 2.0 | 9.0 | 0.00 | 0.00 | 0.00 | 51 | 1012.5 |
| 20260504023726 | 57 | 286 | 2.0 | 9.0 | 0.00 | 0.00 | 0.00 | 51 | 1012.4 |
| 20260504023203 | 57 | 286 | 2.0 | 5.0 | 0.00 | 0.00 | 0.00 | 51 | 1012.3 |
| 20260504023026 | 57 | 285 | 1.0 | 5.0 | 0.00 | 0.00 | 0.00 | 51 | 1013.0 |
| 20260504022657 | 57 | 285 | 2.0 | 5.0 | 0.00 | 0.00 | 0.00 | 51 | 1012.4 |
| 20260504022157 | 57 | 285 | 2.0 | 5.0 | 0.00 | 0.00 | 0.00 | 51 | 1012.5 |
| 20260504021629 | 58 | 286 | 2.0 | 6.0 | 0.00 | 0.00 | 0.00 | 50 | 1012.4 |
| 20260504021518 | 57 | 286 | 1.0 | 5.0 | 0.00 | 0.00 | 0.00 | 50 | 1013.0 |
| 20260504021130 | 58 | 284 | 2.0 | 6.0 | 0.00 | 0.00 | 0.00 | 50 | 1012.4 |
| 20260504020605 | 58 | 285 | 3.0 | 8.0 | 0.00 | 0.00 | 0.00 | 49 | 1012.4 |
| 20260504020124 | 57 | 285 | 3.0 | 9.0 | 0.00 | 0.00 | 0.00 | 49 | 1012.9 |
| 20260504020040 | 58 | 284 | 3.0 | 9.0 | 0.00 | 0.00 | 0.00 | 49 | 1012.3 |
| 20260504015535 | 58 | 286 | 3.0 | 9.0 | 0.00 | 0.00 | 0.00 | 48 | 1012.3 |
| 20260504015036 | 58 | 285 | 4.0 | 9.0 | 0.00 | 0.00 | 0.00 | 47 | 1012.2 |
| 20260504014542 | 58 | 285 | 2.0 | 14.0 | 0.00 | 0.00 | 0.00 | 46 | 1012.9 |
| 20260504014506 | 58 | 285 | 5.0 | 14.0 | 0.00 | 0.00 | 0.00 | 46 | 1012.3 |
| 20260504013941 | 59 | 285 | 5.0 | 14.0 | 0.00 | 0.00 | 0.00 | 45 | 1012.2 |
| 20260504013414 | 59 | 284 | 6.0 | 14.0 | 0.00 | 0.00 | 0.00 | 44 | 1012.1 |
| 20260504013102 | 58 | 285 | 5.0 | 14.0 | 0.00 | 0.00 | 0.00 | 44 | 1012.7 |
| 20260504012908 | 59 | 284 | 5.0 | 14.0 | 0.00 | 0.00 | 0.00 | 43 | 1012.0 |
| 20260504012339 | 59 | 286 | 4.0 | 10.0 | 0.00 | 0.00 | 0.00 | 43 | 1012.0 |
| 20260504011813 | 59 | 286 | 5.0 | 15.0 | 0.00 | 0.00 | 0.00 | 42 | 1011.9 |
| 20260504011528 | 59 | 285 | 3.0 | 15.0 | 0.00 | 0.00 | 0.00 | 43 | 1012.6 |
| 20260504011245 | 59 | 286 | 4.0 | 15.0 | 0.00 | 0.00 | 0.00 | 42 | 1012.0 |
| 20260504010744 | 59 | 286 | 4.0 | 13.0 | 0.00 | 0.00 | 0.00 | 42 | 1012.0 |
| 20260504010215 | 59 | 285 | 4.0 | 13.0 | 0.00 | 0.00 | 0.00 | 41 | 1012.0 |
| 20260504010049 | 59 | 286 | 5.0 | 13.0 | 0.00 | 0.00 | 0.00 | 42 | 1012.6 |
| 20260504005649 | 59 | 285 | 4.0 | 10.0 | 0.00 | 0.00 | 0.00 | 41 | 1011.9 |
| 20260504005123 | 59 | 286 | 5.0 | 11.0 | 0.00 | 0.00 | 0.00 | 41 | 1012.0 |
| 20260504004556 | 59 | 285 | 5.0 | 12.0 | 0.00 | 0.00 | 0.00 | 41 | 1012.0 |
| 20260504004525 | 59 | 284 | 4.0 | 11.0 | 0.00 | 0.00 | 0.00 | 41 | 1012.6 |
| 20260504004052 | 59 | 286 | 5.0 | 12.0 | 0.00 | 0.00 | 0.00 | 41 | 1012.1 |
| 20260504003549 | 59 | 286 | 5.0 | 13.0 | 0.00 | 0.00 | 0.00 | 41 | 1012.0 |
| 20260504003240 | 59 | 285 | 3.0 | 13.0 | 0.00 | 0.00 | 0.00 | 41 | 1012.0 |
| 20260504003102 | 59 | 286 | 6.0 | 13.0 | 0.00 | 0.00 | 0.00 | 41 | 1012.6 |
| 20260504002457 | 59 | 286 | 3.0 | 11.0 | 0.00 | 0.00 | 0.00 | 41 | 1012.0 |
| 20260504001929 | 60 | 287 | 4.0 | 15.0 | 0.00 | 0.00 | 0.00 | 41 | 1012.1 |
| 20260504001554 | 59 | 286 | 5.0 | 15.0 | 0.00 | 0.00 | 0.00 | 40 | 1012.7 |
| 20260504001405 | 60 | 286 | 5.0 | 15.0 | 0.00 | 0.00 | 0.00 | 41 | 1012.0 |
| 20260504000838 | 60 | 286 | 5.0 | 12.0 | 0.00 | 0.00 | 0.00 | 40 | 1011.9 |
| 20260504000311 | 60 | 287 | 5.0 | 12.0 | 0.00 | 0.00 | 0.00 | 40 | 1011.8 |
| 20260504000021 | 59 | 286 | 4.0 | 12.0 | 0.00 | 0.00 | 0.00 | 41 | 1012.4 |
| 20260504000010 | 60 | 286 | 4.0 | 11.0 | 0.00 | 0.00 | 0.00 | 40 | 1011.8 |
| 20260503235244 | 60 | 288 | 4.0 | 11.0 | 0.00 | 0.00 | 0.00 | 39 | 1011.8 |
| 20260503234713 | 60 | 286 | 5.0 | 11.0 | 0.00 | 0.00 | 0.00 | 40 | 1011.8 |
| 20260503234511 | 60 | 286 | 4.0 | 11.0 | 0.00 | 0.00 | 0.00 | 39 | 1012.4 |
| 20260503234212 | 60 | 286 | 4.0 | 11.0 | 0.00 | 0.00 | 0.00 | 40 | 1011.7 |
| 20260503234132 | 60 | 287 | 4.0 | 11.0 | 0.00 | 0.00 | 0.00 | 40 | 1011.7 |
| 20260503233345 | 60 | 286 | 4.0 | 11.0 | 0.00 | 0.00 | 0.00 | 40 | 1011.8 |
| 20260503233048 | 60 | 286 | 3.0 | 11.0 | 0.00 | 0.00 | 0.00 | 40 | 1012.5 |
| 20260503232551 | 60 | 286 | 4.0 | 11.0 | 0.00 | 0.00 | 0.00 | 40 | 1012.0 |
| 20260503232309 | 60 | 290 | 4.0 | 9.0 | 0.00 | 0.00 | 0.00 | 40 | 1012.0 |
| 20260503231539 | 60 | 288 | 2.0 | 9.0 | 0.00 | 0.00 | 0.00 | 40 | 1012.8 |
| 20260503231521 | 60 | 289 | 4.0 | 10.0 | 0.00 | 0.00 | 0.00 | 40 | 1012.2 |
| 20260503231020 | 60 | 288 | 4.0 | 11.0 | 0.00 | 0.00 | 0.00 | 39 | 1012.3 |
| 20260503230451 | 60 | 289 | 4.0 | 11.0 | 0.00 | 0.00 | 0.00 | 39 | 1012.4 |
| 20260503230040 | 60 | 285 | 4.0 | 12.0 | 0.00 | 0.00 | 0.00 | 39 | 1013.2 |
| 20260503225950 | 60 | 286 | 5.0 | 12.0 | 0.00 | 0.00 | 0.00 | 39 | 1012.6 |
| 20260503225715 | 60 | 286 | 6.0 | 12.0 | 0.00 | 0.00 | 0.00 | 38 | 1012.7 |
| 20260503224944 | 60 | 285 | 5.0 | 12.0 | 0.00 | 0.00 | 0.00 | 38 | 1012.8 |
| 20260503224707 | 60 | 285 | 5.0 | 12.0 | 0.00 | 0.00 | 0.00 | 39 | 1012.8 |
| 20260503224615 | 60 | 286 | 6.0 | 12.0 | 0.00 | 0.00 | 0.00 | 38 | 1013.5 |
| 20260503223943 | 60 | 286 | 5.0 | 14.0 | 0.00 | 0.00 | 0.00 | 38 | 1013.0 |
| 20260503223443 | 60 | 285 | 6.0 | 14.0 | 0.00 | 0.00 | 0.00 | 38 | 1013.1 |
| 20260503223211 | 60 | 286 | 5.0 | 13.0 | 0.00 | 0.00 | 0.00 | 38 | 1013.2 |
| 20260503223023 | 60 | 286 | 7.0 | 14.0 | 0.00 | 0.00 | 0.00 | 38 | 1013.7 |
| 20260503222416 | 60 | 286 | 6.0 | 16.0 | 0.00 | 0.00 | 0.00 | 39 | 1013.3 |
| 20260503221915 | 60 | 286 | 7.0 | 16.0 | 0.00 | 0.00 | 0.00 | 38 | 1013.3 |
| 20260503221537 | 60 | 287 | 7.0 | 16.0 | 0.00 | 0.00 | 0.00 | 37 | 1014.0 |
| 20260503221408 | 61 | 288 | 6.0 | 16.0 | 0.00 | 0.00 | 0.00 | 38 | 1013.5 |
| 20260503221308 | 61 | 91 | 4.0 | 12.0 | 0.00 | 0.00 | 0.00 | 39 | 1013.4 |
| 20260503220937 | 61 | 286 | 5.0 | 11.0 | 0.00 | 0.00 | 0.00 | 39 | 1013.4 |
| 20260503220027 | 61 | 189 | 4.0 | 12.0 | 0.00 | 0.00 | 0.00 | 40 | 1014.1 |
| 20260503215837 | 61 | 300 | 4.0 | 12.0 | 0.00 | 0.00 | 0.00 | 39 | 1013.5 |
| 20260503215310 | 61 | 285 | 4.0 | 9.0 | 0.00 | 0.00 | 0.00 | 40 | 1013.5 |
| 20260503214807 | 61 | 287 | 4.0 | 10.0 | 0.00 | 0.00 | 0.00 | 38 | 1013.5 |
| 20260503214538 | 60 | 288 | 2.0 | 10.0 | 0.00 | 0.00 | 0.00 | 40 | 1014.2 |
| 20260503214244 | 61 | 285 | 4.0 | 11.0 | 0.00 | 0.00 | 0.00 | 39 | 1013.5 |
| 20260503213712 | 60 | 284 | 3.0 | 11.0 | 0.00 | 0.00 | 0.00 | 37 | 1013.5 |
| 20260503213211 | 60 | 288 | 3.0 | 11.0 | 0.00 | 0.00 | 0.00 | 37 | 1013.5 |
| 20260503213055 | 60 | 286 | 3.0 | 11.0 | 0.00 | 0.00 | 0.00 | 39 | 1014.2 |
| 20260503212646 | 60 | 284 | 3.0 | 9.0 | 0.00 | 0.00 | 0.00 | 38 | 1013.5 |
| 20260503212117 | 60 | 287 | 4.0 | 9.0 | 0.00 | 0.00 | 0.00 | 37 | 1013.6 |
| 20260503211615 | 60 | 286 | 5.0 | 10.0 | 0.00 | 0.00 | 0.00 | 38 | 1013.6 |
| 20260503211544 | 60 | 286 | 3.0 | 11.0 | 0.00 | 0.00 | 0.00 | 38 | 1014.3 |
| 20260503211328 | 60 | 286 | 4.0 | 16.0 | 0.00 | 0.00 | 0.00 | 38 | 1014.0 |
| 20260503210602 | 60 | 284 | 3.0 | 16.0 | 0.00 | 0.00 | 0.00 | 37 | 1014.0 |
| 20260503210033 | 59 | 286 | 3.0 | 12.0 | 0.00 | 0.00 | 0.00 | 39 | 1014.8 |
| 20260503205537 | 60 | 286 | 5.0 | 12.0 | 0.00 | 0.00 | 0.00 | 39 | 1014.4 |
| 20260503205035 | 60 | 287 | 4.0 | 11.0 | 0.00 | 0.00 | 0.00 | 38 | 1014.7 |
| 20260503204728 | 60 | 288 | 4.0 | 14.0 | 0.00 | 0.00 | 0.00 | 38 | 1014.6 |
| 20260503204606 | 59 | 286 | 3.0 | 10.0 | 0.00 | 0.00 | 0.00 | 39 | 1015.3 |
| 20260503203939 | 60 | 286 | 5.0 | 14.0 | 0.00 | 0.00 | 0.00 | 39 | 1014.6 |
| 20260503203437 | 60 | 286 | 5.0 | 14.0 | 0.00 | 0.00 | 0.00 | 38 | 1014.6 |
| 20260503203041 | 59 | 286 | 6.0 | 14.0 | 0.00 | 0.00 | 0.00 | 38 | 1015.1 |
| 20260503202911 | 60 | 285 | 5.0 | 14.0 | 0.00 | 0.00 | 0.00 | 37 | 1014.4 |
| 20260503202627 | 60 | 285 | 6.0 | 17.0 | 0.00 | 0.00 | 0.00 | 37 | 1014.4 |
| 20260503201904 | 60 | 286 | 5.0 | 17.0 | 0.00 | 0.00 | 0.00 | 37 | 1014.5 |
| 20260503201551 | 59 | 286 | 2.0 | 11.0 | 0.00 | 0.00 | 0.00 | 38 | 1015.1 |
| 20260503201359 | 60 | 284 | 5.0 | 16.0 | 0.00 | 0.00 | 0.00 | 39 | 1014.5 |
| 20260503200902 | 60 | 287 | 6.0 | 16.0 | 0.00 | 0.00 | 0.00 | 38 | 1014.6 |
| 20260503200837 | 60 | 287 | 6.0 | 17.0 | 0.00 | 0.00 | 0.00 | 37 | 1014.5 |
| 20260503200043 | 60 | 159 | 4.0 | 17.0 | 0.00 | 0.00 | 0.00 | 37 | 1015.2 |
| 20260503195853 | 60 | 79 | 6.0 | 17.0 | 0.00 | 0.00 | 0.00 | 37 | 1014.4 |
| 20260503195348 | 61 | 132 | 6.0 | 13.0 | 0.00 | 0.00 | 0.00 | 37 | 1014.6 |
| 20260503195338 | 61 | 188 | 6.0 | 13.0 | 0.00 | 0.00 | 0.00 | 37 | 1014.6 |
| 20260503194511 | 61 | 118 | 4.0 | 14.0 | 0.00 | 0.00 | 0.00 | 37 | 1015.4 |
| 20260503194321 | 61 | 222 | 6.0 | 15.0 | 0.00 | 0.00 | 0.00 | 36 | 1014.8 |
| 20260503193818 | 62 | 154 | 6.0 | 15.0 | 0.00 | 0.00 | 0.00 | 38 | 1015.0 |
| 20260503193315 | 62 | 104 | 7.0 | 15.0 | 0.00 | 0.00 | 0.00 | 36 | 1015.2 |
| 20260503193040 | 61 | 159 | 6.0 | 15.0 | 0.00 | 0.00 | 0.00 | 36 | 1016.0 |
| 20260503192746 | 62 | 141 | 6.0 | 15.0 | 0.00 | 0.00 | 0.00 | 37 | 1015.3 |
| 20260503192246 | 62 | 209 | 6.0 | 18.0 | 0.00 | 0.00 | 0.00 | 36 | 1015.3 |
| 20260503191718 | 61 | 203 | 5.0 | 18.0 | 0.00 | 0.00 | 0.00 | 37 | 1015.4 |
| 20260503191532 | 60 | 125 | 5.0 | 11.0 | 0.00 | 0.00 | 0.00 | 38 | 1016.3 |
| 20260503191439 | 60 | 74 | 6.0 | 15.0 | 0.00 | 0.00 | 0.00 | 37 | 1015.4 |
| 20260503190711 | 60 | 121 | 6.0 | 16.0 | 0.00 | 0.00 | 0.00 | 39 | 1015.6 |
| 20260503190210 | 60 | 171 | 6.0 | 16.0 | 0.00 | 0.00 | 0.00 | 38 | 1015.6 |
| 20260503190033 | 60 | 211 | 5.0 | 16.0 | 0.00 | 0.00 | 0.00 | 38 | 1016.3 |
| 20260503185643 | 60 | 118 | 5.0 | 16.0 | 0.00 | 0.00 | 0.00 | 38 | 1015.7 |
| 20260503185139 | 60 | 93 | 6.0 | 12.0 | 0.00 | 0.00 | 0.00 | 43 | 1015.8 |
| 20260503184611 | 59 | 107 | 6.0 | 15.0 | 0.00 | 0.00 | 0.00 | 37 | 1015.9 |
| 20260503184519 | 59 | 165 | 5.0 | 15.0 | 0.00 | 0.00 | 0.00 | 37 | 1016.7 |
| 20260503184110 | 59 | 125 | 6.0 | 15.0 | 0.00 | 0.00 | 0.00 | 38 | 1016.0 |
| 20260503183543 | 59 | 76 | 6.0 | 15.0 | 0.00 | 0.00 | 0.00 | 37 | 1016.2 |
| 20260503183055 | 59 | 138 | 5.0 | 15.0 | 0.00 | 0.00 | 0.00 | 38 | 1017.0 |
| 20260503183037 | 60 | 200 | 6.0 | 15.0 | 0.00 | 0.00 | 0.00 | 38 | 1016.2 |
| 20260503182536 | 60 | 161 | 6.0 | 16.0 | 0.00 | 0.00 | 0.00 | 37 | 1016.1 |
| 20260503182034 | 60 | 20 | 7.0 | 18.0 | 0.00 | 0.00 | 0.00 | 35 | 1016.2 |
| 20260503181547 | 60 | 113 | 7.0 | 18.0 | 0.00 | 0.00 | 0.00 | 36 | 1017.1 |
| 20260503181509 | 61 | 131 | 6.0 | 17.0 | 0.00 | 0.00 | 0.00 | 36 | 1016.3 |
| 20260503181004 | 61 | 151 | 5.0 | 15.0 | 0.00 | 0.00 | 0.00 | 39 | 1016.3 |
| 20260503180501 | 60 | 99 | 6.0 | 15.0 | 0.00 | 0.00 | 0.00 | 38 | 1016.4 |
| 20260503180153 | 60 | 84 | 6.0 | 17.0 | 0.00 | 0.00 | 0.00 | 36 | 1016.5 |
| 20260503175433 | 60 | 75 | 6.0 | 17.0 | 0.00 | 0.00 | 0.00 | 37 | 1016.5 |
| 20260503174906 | 60 | 123 | 6.0 | 15.0 | 0.00 | 0.00 | 0.00 | 38 | 1016.6 |
| 20260503174506 | 59 | 187 | 8.0 | 16.0 | 0.00 | 0.00 | 0.00 | 38 | 1017.3 |
| 20260503174339 | 60 | 126 | 6.0 | 16.0 | 0.00 | 0.00 | 0.00 | 38 | 1016.5 |
| 20260503174100 | 60 | 137 | 6.0 | 16.0 | 0.00 | 0.00 | 0.00 | 37 | 1016.7 |
| 20260503173312 | 60 | 165 | 6.0 | 16.0 | 0.00 | 0.00 | 0.00 | 38 | 1016.8 |
| 20260503173002 | 59 | 90 | 6.0 | 14.0 | 0.00 | 0.00 | 0.00 | 37 | 1017.7 |
| 20260503172813 | 60 | 63 | 6.0 | 16.0 | 0.00 | 0.00 | 0.00 | 38 | 1016.8 |
| 20260503172249 | 60 | 60 | 6.0 | 16.0 | 0.00 | 0.00 | 0.00 | 38 | 1017.0 |
| 20260503171723 | 59 | 167 | 7.0 | 16.0 | 0.00 | 0.00 | 0.00 | 42 | 1017.2 |
| 20260503171541 | 58 | 132 | 7.0 | 16.0 | 0.00 | 0.00 | 0.00 | 36 | 1017.9 |
| 20260503171412 | 59 | 216 | 6.0 | 13.0 | 0.00 | 0.00 | 0.00 | 37 | 1017.3 |
| 20260503170651 | 59 | 91 | 7.0 | 15.0 | 0.00 | 0.00 | 0.00 | 38 | 1017.5 |
| 20260503170148 | 59 | 145 | 7.0 | 17.0 | 0.00 | 0.00 | 0.00 | 40 | 1017.5 |
| 20260503150923 | 55 | 112 | 5.0 | 13.0 | 0.00 | 0.00 | 0.00 | 50 | 1018.8 |
| 20260503150622 | 54 | 193 | 6.0 | 15.0 | 0.00 | 0.00 | 0.00 | 47 | 1018.8 |
| 20260503150124 | 54 | 210 | 6.0 | 15.0 | 0.00 | 0.00 | 0.00 | 46 | 1018.8 |
| 20260503131329 | 46 | 135 | 3.0 | 8.0 | 0.00 | 0.00 | 0.00 | 67 | 1018.8 |
| 20260503131052 | 45 | 273 | 2.0 | 5.0 | 0.00 | 0.00 | 0.00 | 73 | 1018.8 |
| 20260503130547 | 45 | 273 | 3.0 | 5.0 | 0.00 | 0.00 | 0.00 | 73 | 1018.8 |
| 20260503110754 | 38 | 305 | 0.0 | 3.0 | 0.00 | 0.00 | 0.00 | 82 | 1018.3 |
| 20260503110252 | 38 | 301 | 1.0 | 3.0 | 0.00 | 0.00 | 0.00 | 82 | 1018.2 |
| 20260503100109 | 37 | 306 | 0.0 | 2.0 | 0.00 | 0.00 | 0.00 | 86 | 1018.5 |
| 20260503090148 | 38 | 286 | 0.0 | 3.0 | 0.00 | 0.00 | 0.00 | 84 | 1017.7 |
| 20260503081539 | 38 | 284 | 0.0 | 3.0 | 0.00 | 0.00 | 0.00 | 83 | 1018.4 |
| 20260503081515 | 38 | 284 | 0.0 | 3.0 | 0.00 | 0.00 | 0.00 | 83 | 1017.6 |
| 20260503081256 | 38 | 284 | 1.0 | 2.0 | 0.00 | 0.00 | 0.00 | 83 | 1017.6 |
| 20260503080450 | 38 | 284 | 1.0 | 3.0 | 0.00 | 0.00 | 0.00 | 83 | 1017.5 |
| 20260503072734 | 38 | 284 | 0.0 | 1.0 | 0.00 | 0.00 | 0.00 | 84 | 1017.5 |
| 20260503072227 | 38 | 284 | 0.0 | 1.0 | 0.00 | 0.00 | 0.00 | 84 | 1017.5 |
| 20260503071725 | 38 | 284 | 0.0 | 1.0 | 0.00 | 0.00 | 0.00 | 84 | 1017.5 |
| 20260503071603 | 37 | 284 | 0.0 | 1.0 | 0.00 | 0.00 | 0.00 | 84 | 1018.3 |
| 20260503071159 | 38 | 284 | 0.0 | 1.0 | 0.00 | 0.00 | 0.00 | 84 | 1017.5 |
| 20260503070629 | 38 | 284 | 0.0 | 1.0 | 0.00 | 0.00 | 0.00 | 83 | 1017.6 |
| 20260503070345 | 38 | 284 | 0.0 | 1.0 | 0.00 | 0.00 | 0.00 | 83 | 1017.6 |
| 20260503060109 | 39 | 284 | 0.0 | 1.0 | 0.00 | 0.00 | 0.00 | 78 | 1018.6 |
| 20260503054802 | 40 | 284 | 0.0 | 1.0 | 0.00 | 0.00 | 0.00 | 77 | 1017.9 |
| 20260503054557 | 40 | 284 | 0.0 | 1.0 | 0.00 | 0.00 | 0.00 | 76 | 1018.7 |
| 20260503054238 | 40 | 284 | 0.0 | 2.0 | 0.00 | 0.00 | 0.00 | 76 | 1017.9 |
| 20260503053711 | 41 | 284 | 0.0 | 2.0 | 0.00 | 0.00 | 0.00 | 75 | 1017.9 |
| 20260503053204 | 41 | 284 | 0.0 | 2.0 | 0.00 | 0.00 | 0.00 | 75 | 1017.8 |
| 20260503053002 | 40 | 284 | 0.0 | 2.0 | 0.00 | 0.00 | 0.00 | 75 | 1018.7 |
| 20260503052706 | 41 | 284 | 0.0 | 3.0 | 0.00 | 0.00 | 0.00 | 75 | 1017.9 |
| 20260503052144 | 41 | 284 | 1.0 | 3.0 | 0.00 | 0.00 | 0.00 | 75 | 1017.9 |
| 20260503051858 | 41 | 284 | 0.0 | 2.0 | 0.00 | 0.00 | 0.00 | 75 | 1017.9 |
| 20260503051523 | 40 | 284 | 0.0 | 1.0 | 0.00 | 0.00 | 0.00 | 75 | 1018.7 |
| 20260503051341 | 41 | 284 | 0.0 | 2.0 | 0.00 | 0.00 | 0.00 | 74 | 1017.9 |
| 20260503050821 | 41 | 284 | 0.0 | 2.0 | 0.00 | 0.00 | 0.00 | 74 | 1017.8 |
| 20260503050050 | 41 | 284 | 0.0 | 2.0 | 0.00 | 0.00 | 0.00 | 73 | 1017.9 |
| 20260503050020 | 41 | 283 | 0.0 | 2.0 | 0.00 | 0.00 | 0.00 | 73 | 1018.7 |
| 20260503045524 | 41 | 284 | 0.0 | 1.0 | 0.00 | 0.00 | 0.00 | 72 | 1017.9 |
| 20260503045014 | 41 | 284 | 0.0 | 1.0 | 0.00 | 0.00 | 0.00 | 71 | 1017.9 |
| 20260503044733 | 42 | 284 | 0.0 | 3.0 | 0.00 | 0.00 | 0.00 | 71 | 1017.8 |
| 20260503044546 | 41 | 284 | 0.0 | 2.0 | 0.00 | 0.00 | 0.00 | 71 | 1018.7 |
| 20260503044011 | 42 | 283 | 1.0 | 3.0 | 0.00 | 0.00 | 0.00 | 70 | 1017.8 |
| 20260503043511 | 42 | 283 | 1.0 | 3.0 | 0.00 | 0.00 | 0.00 | 70 | 1017.9 |
| 20260503043212 | 42 | 283 | 0.0 | 2.0 | 0.00 | 0.00 | 0.00 | 70 | 1017.9 |
| 20260503043025 | 41 | 283 | 1.0 | 3.0 | 0.00 | 0.00 | 0.00 | 70 | 1018.7 |
| 20260503042422 | 42 | 283 | 0.0 | 2.0 | 0.00 | 0.00 | 0.00 | 70 | 1018.0 |
| 20260503041855 | 42 | 283 | 0.0 | 2.0 | 0.00 | 0.00 | 0.00 | 69 | 1017.9 |
| 20260503041544 | 41 | 283 | 0.0 | 2.0 | 0.00 | 0.00 | 0.00 | 68 | 1018.7 |
| 20260503041353 | 41 | 282 | 0.0 | 2.0 | 0.00 | 0.00 | 0.00 | 68 | 1017.9 |